TimeCST,TemperatureF,Dew PointF,Humidity,Sea Level PressureIn,VisibilityMPH,Wind Direction,Wind SpeedMPH,Gust SpeedMPH,PrecipitationIn,Events,Conditions,WindDirDegrees,DateUTC
12:15 AM,35.6,21.2,56,29.97,10.0,SE,4.6,-,N/A,,Overcast,140,2012-12-08 06:15:00
12:35 AM,35.1,21.2,57,29.97,10.0,South,3.5,-,N/A,,Overcast,180,2012-12-08 06:35:00
12:55 AM,35.1,21.2,57,29.96,10.0,Calm,Calm,-,N/A,,Overcast,0,2012-12-08 06:55:00
1:15 AM,34.9,21.2,57,29.95,10.0,Calm,Calm,-,N/A,,Overcast,0,2012-12-08 07:15:00
1:35 AM,33.8,21.2,60,29.94,10.0,SSW,4.6,-,N/A,,Overcast,200,2012-12-08 07:35:00
1:55 AM,34.0,21.2,60,29.94,10.0,South,3.5,-,N/A,,Overcast,180,2012-12-08 07:55:00
2:15 AM,32.9,21.0,62,29.93,10.0,SSW,3.5,-,N/A,,Mostly Cloudy,200,2012-12-08 08:15:00
2:35 AM,32.0,20.3,62,29.93,10.0,South,6.9,-,N/A,,Scattered Clouds,180,2012-12-08 08:35:00
2:55 AM,30.2,19.8,65,29.93,10.0,South,10.4,-,N/A,,Scattered Clouds,180,2012-12-08 08:55:00
3:15 AM,30.2,19.8,65,29.93,10.0,South,10.4,-,N/A,,Scattered Clouds,180,2012-12-08 09:15:00
3:35 AM,27.9,18.3,67,29.92,10.0,SW,4.6,-,N/A,,Clear,230,2012-12-08 09:35:00
3:55 AM,25.7,18.1,73,29.92,10.0,WSW,5.8,-,N/A,,Clear,250,2012-12-08 09:55:00
4:15 AM,27.1,18.7,70,29.92,10.0,SW,6.9,-,N/A,,Clear,220,2012-12-08 10:15:00
4:35 AM,24.4,17.6,75,29.91,10.0,SW,6.9,-,N/A,,Clear,220,2012-12-08 10:35:00
4:55 AM,23.7,17.6,77,29.89,10.0,SSW,8.1,-,N/A,,Clear,210,2012-12-08 10:55:00
5:15 AM,23.9,17.8,77,29.89,10.0,SW,8.1,-,N/A,,Clear,220,2012-12-08 11:15:00
5:35 AM,25.0,18.0,75,29.89,10.0,SSW,6.9,-,N/A,,Clear,210,2012-12-08 11:35:00
5:55 AM,22.6,17.1,79,29.89,10.0,SW,5.8,-,N/A,,Clear,230,2012-12-08 11:55:00
6:15 AM,22.8,17.1,79,29.88,10.0,SSW,5.8,-,N/A,,Clear,200,2012-12-08 12:15:00
6:35 AM,23.9,17.1,75,29.88,10.0,WSW,5.8,-,N/A,,Clear,240,2012-12-08 12:35:00
6:55 AM,24.8,18.5,77,29.87,10.0,SSW,10.4,-,N/A,,Clear,210,2012-12-08 12:55:00
7:15 AM,23.4,17.4,78,29.87,10.0,WNW,5.8,-,N/A,,Clear,290,2012-12-08 13:15:00
7:35 AM,25.5,19.2,77,29.86,10.0,SSW,8.1,-,N/A,,Clear,210,2012-12-08 13:35:00
7:55 AM,23.7,18.3,80,29.85,10.0,West,4.6,-,N/A,,Clear,270,2012-12-08 13:55:00
8:15 AM,21.6,16.5,81,29.84,10.0,SSW,4.6,-,N/A,,Clear,210,2012-12-08 14:15:00
8:35 AM,23.2,18.1,81,29.84,10.0,SW,5.8,-,N/A,,Clear,230,2012-12-08 14:35:00
8:55 AM,27.5,20.5,75,29.83,10.0,SSW,9.2,-,N/A,,Clear,200,2012-12-08 14:55:00
9:15 AM,32.0,21.2,64,29.83,10.0,SSW,10.4,-,N/A,,Scattered Clouds,210,2012-12-08 15:15:00
9:35 AM,36.3,21.4,55,29.82,10.0,SSW,13.8,-,N/A,,Scattered Clouds,200,2012-12-08 15:35:00
9:55 AM,39.0,22.1,51,29.81,10.0,SSW,17.3,23.0,N/A,,Scattered Clouds,200,2012-12-08 15:55:00
10:15 AM,41.9,23.4,48,29.81,10.0,SSW,18.4,-,N/A,,Scattered Clouds,200,2012-12-08 16:15:00
10:35 AM,43.0,22.6,45,29.80,10.0,SSW,18.4,25.3,N/A,,Mostly Cloudy,200,2012-12-08 16:35:00
10:55 AM,44.6,21.2,39,29.81,10.0,SSW,16.1,24.2,N/A,,Scattered Clouds,200,2012-12-08 16:55:00
11:15 AM,45.9,20.7,37,29.79,10.0,South,20.7,-,N/A,,Mostly Cloudy,190,2012-12-08 17:15:00
11:35 AM,47.8,18.5,31,29.78,10.0,South,20.7,24.2,N/A,,Mostly Cloudy,190,2012-12-08 17:35:00
11:55 AM,46.6,18.7,33,29.76,10.0,SSW,19.6,-,N/A,,Mostly Cloudy,200,2012-12-08 17:55:00
12:15 PM,49.1,18.0,29,29.75,10.0,South,18.4,26.5,N/A,,Scattered Clouds,190,2012-12-08 18:15:00
12:35 PM,50.7,19.4,29,29.73,10.0,SSW,23.0,31.1,N/A,,Clear,200,2012-12-08 18:35:00
12:55 PM,50.9,22.1,32,29.71,10.0,SSW,25.3,34.5,N/A,,Clear,200,2012-12-08 18:55:00
1:15 PM,51.8,22.5,32,29.70,10.0,SSW,23.0,29.9,N/A,,Clear,200,2012-12-08 19:15:00
1:35 PM,50.0,23.0,35,29.68,10.0,South,23.0,28.8,N/A,,Clear,190,2012-12-08 19:35:00
1:55 PM,50.9,23.0,34,29.66,10.0,South,20.7,29.9,N/A,,Scattered Clouds,190,2012-12-08 19:55:00
2:15 PM,52.2,22.3,31,29.66,10.0,SSW,20.7,27.6,N/A,,Clear,200,2012-12-08 20:15:00
2:35 PM,52.0,21.9,31,29.65,10.0,South,19.6,25.3,N/A,,Clear,190,2012-12-08 20:35:00
2:55 PM,52.2,21.9,31,29.65,10.0,South,17.3,27.6,N/A,,Clear,190,2012-12-08 20:55:00
3:15 PM,51.1,23.0,33,29.64,10.0,SSW,18.4,24.2,N/A,,Scattered Clouds,200,2012-12-08 21:15:00
3:35 PM,51.1,23.0,33,29.65,10.0,SSW,17.3,-,N/A,,Mostly Cloudy,210,2012-12-08 21:35:00
3:55 PM,50.9,23.0,34,29.65,10.0,SSW,13.8,-,N/A,,Mostly Cloudy,200,2012-12-08 21:55:00
4:15 PM,50.9,23.5,34,29.65,10.0,South,13.8,-,N/A,,Mostly Cloudy,190,2012-12-08 22:15:00
4:35 PM,51.8,23.4,33,29.66,10.0,SSW,11.5,-,N/A,,Overcast,210,2012-12-08 22:35:00
4:55 PM,51.3,23.7,34,29.66,10.0,SSW,10.4,-,N/A,,Overcast,200,2012-12-08 22:55:00
5:15 PM,49.8,23.9,36,29.67,10.0,South,9.2,-,N/A,,Overcast,190,2012-12-08 23:15:00
5:35 PM,47.7,24.3,40,29.68,10.0,SSW,5.8,-,N/A,,Overcast,200,2012-12-08 23:35:00
5:55 PM,47.3,22.6,38,29.72,10.0,North,12.7,-,N/A,,Overcast,10,2012-12-08 23:55:00
6:15 PM,46.6,22.1,38,29.73,10.0,NNE,15.0,20.7,N/A,,Overcast,20,2012-12-09 00:15:00
6:35 PM,46.0,23.5,41,29.74,10.0,NNE,12.7,19.6,N/A,,Overcast,20,2012-12-09 00:35:00
7:15 PM,46.6,9.3,22,29.76,10.0,North,10.4,-,N/A,,Overcast,360,2012-12-09 01:15:00
7:55 PM,42.4,20.7,42,29.80,10.0,NNW,17.3,25.3,N/A,,Overcast,340,2012-12-09 01:55:00
8:15 PM,42.1,20.1,42,29.82,10.0,North,13.8,-,N/A,,Overcast,350,2012-12-09 02:15:00
8:35 PM,41.9,19.0,40,29.83,10.0,NNW,24.2,34.5,N/A,,Overcast,330,2012-12-09 02:35:00
8:55 PM,41.7,17.6,38,29.83,10.0,NW,10.4,16.1,N/A,,Overcast,310,2012-12-09 02:55:00
9:15 PM,42.3,16.9,36,29.84,10.0,NW,20.7,32.2,N/A,,Overcast,310,2012-12-09 03:15:00
9:35 PM,39.2,19.4,45,29.85,10.0,NW,20.7,36.8,N/A,,Overcast,320,2012-12-09 03:35:00
9:55 PM,39.6,15.6,38,29.87,10.0,NW,16.1,33.4,N/A,,Overcast,320,2012-12-09 03:55:00
10:15 PM,38.8,17.6,42,29.89,10.0,NW,18.4,28.8,N/A,,Overcast,320,2012-12-09 04:15:00
10:35 PM,38.3,20.7,49,29.90,10.0,NNW,20.7,28.8,N/A,,Overcast,340,2012-12-09 04:35:00
10:55 PM,36.9,21.4,54,29.91,10.0,NNW,18.4,29.9,N/A,,Overcast,330,2012-12-09 04:55:00
11:15 PM,34.0,25.7,72,29.91,10.0,NNW,11.5,21.9,N/A,Snow,Light Snow,340,2012-12-09 05:15:00
11:35 PM,34.2,23.0,64,29.91,10.0,NNW,9.2,-,N/A,,Overcast,330,2012-12-09 05:35:00
11:55 PM,35.6,17.8,48,29.91,10.0,NW,12.7,23.0,N/A,,Overcast,320,2012-12-09 05:55:00